Home > Weather > Västerås > Past weeks

Flag for Sweden Weather for the Past 2 Weeks in Västerås, Sweden

Now
25 °F

Low clouds.


Feels Like: 18 °F
Forecast: 21 / 28 °F
Wind: 6 mph from West

Location: Vasteras / Hasslo

Current Time: Feb 14, 2016 at 7:31:08 AM

Latest Report: Feb 14, 2016 at 6:50 AM


Visibility: N/A

Pressure: 29.50 "Hg

Humidity: 100%

Dew point: 25 °F

Location of VästeråsLocation

Historic Weather in Västerås — Graph

°F

Västerås Temperature Yesterday

Maximum temperature yesterday: 32 °F (at 2:20 PM)
Minimum temperature yesterday: 27 °F (at 12:20 AM)
Average temperature yesterday: 28 °F

High & Low Weather Summary for the Past Weeks

 TemperatureHumidityPressure
High48 °F (Feb 7, 1:50 PM)100% (Feb 1, 8:20 PM)29.92 "Hg (Feb 1, 8:20 PM)
Low21 °F (Feb 1, 7:50 AM)56% (Feb 5, 12:50 PM)28.85 "Hg (Feb 2, 2:50 AM)
Average34 °F83%29.31 "Hg
* Reported Jan 30 8:50 AM — Feb 14 6:20 AM, Västerås, Weather by CustomWeather, © 2016

Note: Actual official high and low records may vary slightly from our data, if they occured in-between our weather recording intervals... More about our weather records

Advertising

Västerås Weather History for the Previous 24 Hours

 ConditionsComfort  
Time TempWeatherWind HumidityBarometerVisibility
6:20 AM
Sun, Feb 14
25 °FLow clouds.2 mph100%29.50 "HgN/A
5:20 AM25 °FIce fog.5 mph93%29.50 "Hg1 mi
4:50 AM27 °FIce fog.5 mph93%29.50 "HgN/A
4:20 AM27 °FPassing clouds.3 mph93%29.47 "HgN/A
3:50 AM27 °FLow clouds.6 mph93%29.50 "HgN/A
3:20 AM25 °FPartly cloudy.3 mph93%29.50 "HgN/A
2:20 AM25 °FPartly cloudy.3 mph100%29.50 "HgN/A
1:20 AM25 °FPassing clouds.2 mph100%29.50 "HgN/A
12:50 AM27 °FSnow flurries. Passing clouds.5 mph93%29.50 "HgN/A
12:20 AM28 °FLight snow. Passing clouds.3 mph93%29.50 "Hg3 mi
11:50 PM
Sat, Feb 13
27 °FLight snow. Overcast.1 mph93%29.50 "HgN/A
11:20 PM28 °FPassing clouds.3 mph86%29.50 "HgN/A
10:20 PM28 °FPassing clouds.5 mph86%29.50 "HgN/A
9:50 PM28 °FPassing clouds.3 mph80%29.50 "HgN/A
9:20 PM28 °FPassing clouds.3 mph80%29.50 "HgN/A
8:50 PM27 °FPartly cloudy.5 mph86%29.50 "HgN/A
8:20 PM28 °FPassing clouds.6 mph80%29.50 "HgN/A
7:50 PM28 °FPassing clouds.8 mph80%29.50 "HgN/A
7:20 PM28 °FPassing clouds.9 mph74%29.50 "HgN/A
6:50 PM28 °FPassing clouds.8 mph74%29.50 "HgN/A
6:20 PM28 °FPassing clouds.9 mph69%29.50 "HgN/A
5:50 PM28 °FChilly.9 mph69%29.50 "HgN/A
5:20 PM27 °FChilly.6 mph74%29.50 "HgN/A
4:50 PM28 °FChilly.8 mph69%29.50 "HgN/A
4:20 PM30 °FChilly.7 mph69%29.50 "HgN/A
3:50 PM32 °FPassing clouds.7 mph69%29.50 "HgN/A
3:20 PM30 °FPartly sunny.8 mph75%29.50 "HgN/A
2:50 PM32 °FBroken clouds.10 mph69%29.50 "HgN/A
2:20 PM32 °FScattered clouds.9 mph69%29.50 "HgN/A
1:50 PM30 °FPassing clouds.10 mph75%29.50 "HgN/A
1:20 PM30 °FPassing clouds.9 mph80%29.50 "HgN/A
12:50 PM28 °FLight snow. Passing clouds.12 mph86%29.50 "Hg4 mi
12:20 PM28 °FScattered clouds.12 mph80%29.50 "HgN/A
11:50 AM28 °FScattered clouds.12 mph80%29.50 "HgN/A
11:20 AM28 °FScattered clouds.12 mph80%29.50 "HgN/A
10:50 AM28 °FPassing clouds.13 mph74%29.50 "HgN/A
10:20 AM27 °FPassing clouds.13 mph80%29.47 "HgN/A
9:50 AM28 °FScattered clouds.13 mph74%29.47 "HgN/A
9:20 AM28 °FScattered clouds.13 mph80%29.47 "HgN/A
8:50 AM28 °FBroken clouds.14 mph80%29.47 "HgN/A
8:20 AM27 °FSnow flurries. Partly sunny.12 mph86%29.47 "HgN/A
7:50 AM27 °FLight snow. Broken clouds.12 mph86%29.45 "HgN/A
7:20 AM27 °FLight snow. Passing clouds.9 mph93%29.45 "HgN/A
Weather by CustomWeather, © 2016

See weather overviewHow to use our weather pages